Cairo, IL

1:54 AM CST on December 13, 2019 (GMT -0600)
Cairo Regional

Weather History for KCIR - November, 2019

Change the Weather History Date:

Monday, November 18, 2019

  Actual Average Record
Temperature  
Mean Temperature 42 °F -  
Max Temperature 53 °F 55 °F 74 °F (1985)
Min Temperature 31 °F 38 °F 19 °F (1959)
Degree Days  
Heating Degree Days 23    
Moisture  
Dew Point 38 °F    
Average Humidity 77    
Maximum Humidity 100    
Minimum Humidity 53    
Precipitation  
Precipitation 0.00 in - - ()
Sea Level Pressure  
Sea Level Pressure 29.85 in    
Wind  
Wind Speed 2 mph ()    
Max Wind Speed 8 mph    
Max Gust Speed -    
Visibility 8.9 miles    
Events Rain    
Averages and records for this station are not official NWS values.
T = Trace of Precipitation, MM = Missing Value Source: Averaged Metar Reports

Daily Weather History Graph

Daily Weather History Graph

Search for Another Location

Airport or City:

Astronomy

Nov. 18, 2019 Rise Set
Actual Time 6:38 AM CST 4:45 PM CST
Civil Twilight 6:10 AM CST 5:13 PM CST
Nautical Twilight 5:39 AM CST 5:44 PM CST
Astronomical Twilight 5:08 AM CST 6:15 PM CST
Moon 10:30 PM CST (11/18) 12:08 PM CST (11/18)
Length of Visible Light 11h 02m
Length of Day
10h 06m
Waning Gibbous, 63% of the Moon is Illuminated
Nov 18
Waning Gibbous
Nov 19
Last Quarter
Nov 26
New
Dec 4
First Quarter
Dec 11
Full

Hourly Weather History & Observations

Time (CST) Temp. Windchill Dew Point Humidity Pressure Visibility Wind Dir Wind Speed Gust Speed Precip Events Conditions
12:15 AM 40.1 °F - 38.3 °F 93% 29.89 in 7.0 mi Calm Calm - N/A   Overcast
12:35 AM 40.3 °F - 38.3 °F 93% 29.89 in 7.0 mi Calm Calm - N/A   Overcast
12:55 AM 39.6 °F 36.3 °F 37.4 °F 92% 29.88 in 7.0 mi West 4.6 mph - N/A   Overcast
1:35 AM 37.8 °F - 36.0 °F 93% 29.88 in 7.0 mi Calm Calm - N/A   Clear
1:55 AM 37.4 °F - 36.5 °F 97% 29.88 in 7.0 mi Calm Calm - N/A   Clear
2:15 AM 36.1 °F - 35.6 °F 98% 29.88 in 4.0 mi Calm Calm - N/A   Clear
2:35 AM 33.8 °F - 33.6 °F 99% 29.88 in 5.0 mi Calm Calm - N/A   Clear
2:55 AM 34.2 °F - 34.0 °F 99% 29.88 in 5.0 mi Calm Calm - N/A   Clear
3:15 AM 36.0 °F 33.3 °F 35.6 °F 99% 29.88 in 7.0 mi West 3.5 mph - N/A   Clear
3:35 AM 33.6 °F - 33.3 °F 99% 29.88 in 4.0 mi Calm Calm - N/A   Clear
4:15 AM 31.5 °F 28.1 °F 31.3 °F 99% 29.89 in 2.0 mi West 3.5 mph - N/A   Clear
4:35 AM 32.7 °F - 32.7 °F 100% 29.89 in 4.0 mi Calm Calm - N/A   Mostly Cloudy
4:55 AM 35.6 °F - 35.6 °F 100% 29.89 in 7.0 mi Calm Calm - N/A   Overcast
5:15 AM 35.2 °F - 34.7 °F 98% 29.89 in 7.0 mi Calm Calm - N/A   Overcast
5:35 AM 35.6 °F - 35.6 °F 100% 29.89 in 7.0 mi Calm Calm - N/A   Overcast
5:55 AM 36.1 °F - 36.0 °F 99% 29.89 in 7.0 mi Calm Calm - N/A   Overcast
6:15 AM 36.7 °F - 36.5 °F 99% 29.89 in 7.0 mi Calm Calm - N/A   Overcast
6:35 AM 37.0 °F - 36.7 °F 99% 29.89 in 7.0 mi Calm Calm - N/A   Overcast
7:15 AM 38.3 °F - 37.9 °F 99% 29.90 in 7.0 mi Calm Calm - N/A   Overcast
7:35 AM 39.2 °F - 38.1 °F 96% 29.90 in 10.0 mi Calm Calm - N/A   Overcast
7:55 AM 39.6 °F - 38.5 °F 96% 29.91 in 10.0 mi Calm Calm - N/A   Overcast
8:15 AM 40.6 °F - 39.0 °F 94% 29.91 in 10.0 mi Calm Calm - N/A   Overcast
8:35 AM 41.4 °F - 38.1 °F 88% 29.91 in 10.0 mi Calm Calm - N/A   Overcast
8:55 AM 43.3 °F - 38.8 °F 84% 29.90 in 10.0 mi Calm Calm - N/A   Overcast
9:15 AM 44.2 °F - 39.4 °F 83% 29.90 in 10.0 mi Calm Calm - N/A   Overcast
9:35 AM 45.5 °F - 39.4 °F 79% 29.91 in 10.0 mi Calm Calm - N/A   Overcast
9:55 AM 46.2 °F 44.1 °F 40.3 °F 80% 29.91 in 10.0 mi West 4.6 mph - N/A   Overcast
10:15 AM 47.7 °F - 39.4 °F 73% 29.91 in 10.0 mi West 5.8 mph - N/A   Mostly Cloudy
10:35 AM 49.5 °F - 38.5 °F 66% 29.90 in 10.0 mi West 3.5 mph - N/A   Scattered Clouds
10:55 AM 50.4 °F - 38.3 °F 63% 29.90 in 10.0 mi West 5.8 mph - N/A   Clear
11:15 AM 51.8 °F - 38.3 °F 60% 29.88 in 10.0 mi WSW 4.6 mph - N/A   Clear
11:35 AM 52.0 °F - 37.0 °F 57% 29.87 in 10.0 mi WSW 6.9 mph - N/A   Clear
11:55 AM 52.2 °F - 37.6 °F 58% 29.86 in 10.0 mi SW 6.9 mph - N/A   Clear
12:15 PM 53.4 °F - 36.9 °F 53% 29.85 in 10.0 mi West 5.8 mph - N/A   Scattered Clouds
12:35 PM 53.4 °F - 36.9 °F 53% 29.84 in 10.0 mi West 8.1 mph - N/A   Clear
12:55 PM 52.9 °F - 37.0 °F 55% 29.83 in 10.0 mi West 6.9 mph - N/A   Clear
1:15 PM 52.9 °F - 36.7 °F 54% 29.83 in 10.0 mi West 6.9 mph - N/A   Clear
1:55 PM 52.5 °F - 36.7 °F 55% 29.82 in 10.0 mi West 4.6 mph - N/A   Scattered Clouds
2:15 PM 52.7 °F - 37.2 °F 56% 29.82 in 10.0 mi WSW 3.5 mph - N/A   Clear
2:35 PM 52.7 °F - 36.7 °F 55% 29.81 in 10.0 mi Calm Calm - N/A   Clear
2:55 PM 53.1 °F - 36.5 °F 53% 29.81 in 10.0 mi Calm Calm - N/A   Clear
3:15 PM 52.7 °F - 36.5 °F 54% 29.81 in 10.0 mi Calm Calm - N/A   Clear
3:35 PM 52.2 °F - 37.2 °F 57% 29.81 in 10.0 mi SW 6.9 mph - N/A   Scattered Clouds
3:55 PM 51.8 °F - 37.2 °F 58% 29.81 in 10.0 mi SSW 5.8 mph - N/A   Mostly Cloudy
4:15 PM 51.1 °F - 37.6 °F 60% 29.81 in 10.0 mi SSW 5.8 mph - N/A   Mostly Cloudy
4:35 PM 50.7 °F - 37.6 °F 61% 29.81 in 10.0 mi SSW 5.8 mph - N/A   Overcast
4:55 PM 50.2 °F - 37.4 °F 62% 29.81 in 10.0 mi South 4.6 mph - N/A   Overcast
5:15 PM 49.8 °F - 37.4 °F 62% 29.81 in 10.0 mi South 3.5 mph - N/A   Overcast
5:35 PM 49.1 °F - 37.6 °F 64% 29.81 in 10.0 mi Calm Calm - N/A   Mostly Cloudy
5:55 PM 49.3 °F - 37.9 °F 65% 29.81 in 10.0 mi Calm Calm - N/A   Overcast
6:15 PM 48.6 °F - 38.3 °F 68% 29.81 in 10.0 mi South 6.9 mph - N/A   Overcast
6:35 PM 48.6 °F - 38.3 °F 68% 29.81 in 10.0 mi South 4.6 mph - N/A   Overcast
6:55 PM 48.6 °F - 38.3 °F 68% 29.82 in 10.0 mi South 4.6 mph - N/A   Overcast
7:15 PM 48.4 °F - 38.1 °F 68% 29.82 in 10.0 mi South 5.8 mph - N/A   Overcast
7:35 PM 48.2 °F - 38.3 °F 69% 29.82 in 10.0 mi Calm Calm - N/A   Overcast
7:55 PM 48.2 °F - 38.3 °F 69% 29.82 in 10.0 mi SSW 5.8 mph - N/A   Overcast
8:15 PM 48.6 °F - 38.3 °F 68% 29.82 in 10.0 mi SSW 5.8 mph - N/A   Overcast
8:35 PM 48.6 °F - 38.5 °F 68% 29.82 in 10.0 mi SSW 4.6 mph - N/A Rain Rain
8:55 PM 47.8 °F - 39.6 °F 73% 29.82 in 10.0 mi Calm Calm - N/A   Light Drizzle
9:15 PM 47.5 °F - 39.7 °F 75% 29.81 in 10.0 mi Calm Calm - N/A Rain Rain
9:35 PM 47.3 °F - 39.7 °F 75% 29.81 in 10.0 mi Calm Calm - N/A   Overcast
9:55 PM 46.4 °F - 40.1 °F 79% 29.80 in 10.0 mi Calm Calm - N/A   Overcast
10:15 PM 45.9 °F - 40.3 °F 81% 29.80 in 10.0 mi Calm Calm - N/A   Overcast
10:35 PM 45.9 °F 43.6 °F 40.3 °F 81% 29.80 in 10.0 mi SSE 4.6 mph - N/A   Overcast
10:55 PM 46.8 °F - 39.6 °F 76% 29.80 in 10.0 mi Calm Calm - N/A   Light Drizzle
11:15 PM 46.4 °F 44.3 °F 40.1 °F 79% 29.80 in 10.0 mi SSE 4.6 mph - N/A   Drizzle
11:35 PM 46.4 °F 44.3 °F 40.5 °F 80% 29.80 in 10.0 mi South 4.6 mph - N/A Rain Light Rain
11:55 PM 46.2 °F 43.3 °F 40.6 °F 81% 29.79 in 10.0 mi SSE 5.8 mph - N/A Rain Light Rain